Time,TemperatureF,DewpointF,PressureIn,WindDirection,WindDirectionDegrees,WindSpeedMPH,WindSpeedGustMPH,Humidity,HourlyPrecipIn,Conditions,Clouds,dailyrainin,SoftwareType,DateUTC
2013-05-02 00:00:00,52.6,38.7,30.57,South,187,0.0,0.0,59,0.00,,---,0.00,VWS V14.01,2013-05-02 07:00:00,
2013-05-02 00:05:00,52.5,39.0,30.57,North,5,0.0,0.0,60,0.00,,---,0.00,VWS V14.01,2013-05-02 07:05:00,
2013-05-02 00:10:00,52.4,38.9,30.57,West,275,0.0,0.0,60,0.00,,---,0.00,VWS V14.01,2013-05-02 07:10:00,
2013-05-02 00:15:00,52.4,38.9,30.57,NNE,32,0.0,0.0,60,0.00,,---,0.00,VWS V14.01,2013-05-02 07:15:00,
2013-05-02 00:20:00,52.4,38.5,30.57,East,85,0.0,0.0,59,0.00,,---,0.00,VWS V14.01,2013-05-02 07:20:00,
2013-05-02 00:25:00,52.4,38.5,30.56,NE,50,0.0,0.0,59,0.00,,---,0.00,VWS V14.01,2013-05-02 07:25:00,
2013-05-02 00:30:00,52.4,38.1,30.56,ENE,76,0.0,0.0,58,0.00,,---,0.00,VWS V14.01,2013-05-02 07:30:00,
2013-05-02 00:35:00,52.5,37.7,30.56,NNW,329,0.0,0.0,57,0.00,,---,0.00,VWS V14.01,2013-05-02 07:35:00,
2013-05-02 00:40:00,52.4,37.6,30.56,West,259,0.0,0.0,57,0.00,,---,0.00,VWS V14.01,2013-05-02 07:40:00,
2013-05-02 00:45:00,52.4,38.1,30.56,SE,144,0.0,0.0,58,0.00,,---,0.00,VWS V14.01,2013-05-02 07:45:00,
2013-05-02 00:50:00,52.4,38.1,30.56,NNW,336,0.0,0.0,58,0.00,,---,0.00,VWS V14.01,2013-05-02 07:50:00,
2013-05-02 00:55:00,52.3,38.4,30.56,NNE,18,0.0,0.0,59,0.00,,---,0.00,VWS V14.01,2013-05-02 07:55:00,
2013-05-02 01:00:00,52.2,37.9,30.56,NNW,337,0.0,0.0,58,0.00,,---,0.00,VWS V14.01,2013-05-02 08:00:00,
2013-05-02 01:05:00,52.2,38.3,30.56,North,5,0.0,0.0,59,0.00,,---,0.00,VWS V14.01,2013-05-02 08:05:00,
2013-05-02 01:10:00,52.0,38.1,30.56,NNE,16,0.0,0.0,59,0.00,,---,0.00,VWS V14.01,2013-05-02 08:10:00,
2013-05-02 01:15:00,52.0,38.1,30.55,NNW,334,0.0,0.0,59,0.00,,---,0.00,VWS V14.01,2013-05-02 08:15:00,
2013-05-02 01:20:00,51.9,38.0,30.55,NNE,26,0.0,0.0,59,0.00,,---,0.00,VWS V14.01,2013-05-02 08:20:00,
2013-05-02 01:25:00,51.9,38.0,30.56,NNE,30,0.0,0.0,59,0.00,,---,0.00,VWS V14.01,2013-05-02 08:25:00,
2013-05-02 01:30:00,51.8,37.9,30.56,NNE,32,0.0,0.0,59,0.00,,---,0.00,VWS V14.01,2013-05-02 08:30:00,
2013-05-02 01:35:00,51.8,38.4,30.56,NE,35,0.0,0.0,60,0.00,,---,0.00,VWS V14.01,2013-05-02 08:35:00,
2013-05-02 01:40:00,51.8,38.4,30.55,NNW,344,0.0,0.0,60,0.00,,---,0.00,VWS V14.01,2013-05-02 08:40:00,
2013-05-02 01:45:00,51.7,38.3,30.56,North,360,0.0,0.0,60,0.00,,---,0.00,VWS V14.01,2013-05-02 08:45:00,
2013-05-02 01:50:00,51.6,38.6,30.55,North,5,0.0,0.0,61,0.00,,---,0.00,VWS V14.01,2013-05-02 08:50:00,
2013-05-02 01:55:00,51.5,38.5,30.55,North,360,0.0,0.0,61,0.00,,---,0.00,VWS V14.01,2013-05-02 08:55:00,
2013-05-02 02:00:00,51.4,38.4,30.55,NNE,21,0.0,0.0,61,0.00,,---,0.00,VWS V14.01,2013-05-02 09:00:00,
2013-05-02 02:05:00,51.2,38.6,30.55,ENE,58,0.0,0.0,62,0.00,,---,0.00,VWS V14.01,2013-05-02 09:05:00,
2013-05-02 02:10:00,51.1,38.5,30.55,NE,46,0.0,0.0,62,0.00,,---,0.00,VWS V14.01,2013-05-02 09:10:00,
2013-05-02 02:15:00,51.1,38.5,30.55,NE,51,0.0,0.0,62,0.00,,---,0.00,VWS V14.01,2013-05-02 09:15:00,
2013-05-02 02:20:00,51.0,38.0,30.55,ENE,57,0.0,0.0,61,0.00,,---,0.00,VWS V14.01,2013-05-02 09:20:00,
2013-05-02 02:25:00,50.9,38.0,30.55,SSE,148,0.0,0.0,61,0.00,,---,0.00,VWS V14.01,2013-05-02 09:25:00,
2013-05-02 02:30:00,50.9,38.0,30.55,North,355,0.0,0.0,61,0.00,,---,0.00,VWS V14.01,2013-05-02 09:30:00,
2013-05-02 02:35:00,50.7,38.6,30.55,North,360,0.0,0.0,63,0.00,,---,0.00,VWS V14.01,2013-05-02 09:35:00,
2013-05-02 02:40:00,50.5,38.4,30.55,NNW,340,0.0,0.0,63,0.00,,---,0.00,VWS V14.01,2013-05-02 09:40:00,
2013-05-02 02:45:00,50.5,38.4,30.55,NNE,22,0.0,0.0,63,0.00,,---,0.00,VWS V14.01,2013-05-02 09:45:00,
2013-05-02 02:50:00,50.5,38.4,30.55,NNE,15,0.0,0.0,63,0.00,,---,0.00,VWS V14.01,2013-05-02 09:50:00,
2013-05-02 02:55:00,50.3,38.6,30.55,NNE,16,0.0,0.0,64,0.00,,---,0.00,VWS V14.01,2013-05-02 09:55:00,
2013-05-02 03:00:00,50.2,38.5,30.55,NNE,16,0.0,0.0,64,0.00,,---,0.00,VWS V14.01,2013-05-02 10:00:00,
2013-05-02 03:05:00,50.0,37.9,30.55,North,360,0.0,0.0,63,0.00,,---,0.00,VWS V14.01,2013-05-02 10:05:00,
2013-05-02 03:10:00,49.8,37.3,30.55,North,360,0.0,0.0,62,0.00,,---,0.00,VWS V14.01,2013-05-02 10:10:00,
2013-05-02 03:15:00,49.7,37.2,30.55,North,360,0.0,0.0,62,0.00,,---,0.00,VWS V14.01,2013-05-02 10:15:00,
2013-05-02 03:20:00,49.7,37.6,30.55,NNW,336,0.0,0.0,63,0.00,,---,0.00,VWS V14.01,2013-05-02 10:20:00,
2013-05-02 03:25:00,49.6,37.5,30.55,North,355,0.0,0.0,63,0.00,,---,0.00,VWS V14.01,2013-05-02 10:25:00,
2013-05-02 03:30:00,49.6,37.9,30.54,North,355,0.0,0.0,64,0.00,,---,0.00,VWS V14.01,2013-05-02 10:30:00,
2013-05-02 03:35:00,49.6,37.9,30.54,NNE,13,0.0,0.0,64,0.00,,---,0.00,VWS V14.01,2013-05-02 10:35:00,
2013-05-02 03:40:00,49.6,37.9,30.54,North,360,0.0,0.0,64,0.00,,---,0.00,VWS V14.01,2013-05-02 10:40:00,
2013-05-02 03:45:00,49.6,38.3,30.53,ENE,64,0.0,0.0,65,0.00,,---,0.00,VWS V14.01,2013-05-02 10:45:00,
2013-05-02 03:50:00,49.5,38.2,30.53,NNW,337,0.0,0.0,65,0.00,,---,0.00,VWS V14.01,2013-05-02 10:50:00,
2013-05-02 03:55:00,49.4,38.5,30.53,NE,42,0.0,0.0,66,0.00,,---,0.00,VWS V14.01,2013-05-02 10:55:00,
2013-05-02 04:00:00,49.3,38.4,30.53,NE,41,0.0,0.0,66,0.00,,---,0.00,VWS V14.01,2013-05-02 11:00:00,
2013-05-02 04:05:00,49.2,38.7,30.53,ENE,61,0.0,0.0,67,0.00,,---,0.00,VWS V14.01,2013-05-02 11:05:00,
2013-05-02 04:10:00,49.2,38.7,30.53,NNE,25,0.0,0.0,67,0.00,,---,0.00,VWS V14.01,2013-05-02 11:10:00,
2013-05-02 04:15:00,49.1,38.6,30.52,North,10,0.0,0.0,67,0.00,,---,0.00,VWS V14.01,2013-05-02 11:15:00,
2013-05-02 04:20:00,48.9,38.8,30.52,NNE,24,0.0,0.0,68,0.00,,---,0.00,VWS V14.01,2013-05-02 11:20:00,
2013-05-02 04:25:00,48.8,39.1,30.52,North,9,0.0,0.0,69,0.00,,---,0.00,VWS V14.01,2013-05-02 11:25:00,
2013-05-02 04:30:00,48.7,39.0,30.53,North,355,0.0,0.0,69,0.00,,---,0.00,VWS V14.01,2013-05-02 11:30:00,
2013-05-02 04:35:00,48.7,39.0,30.52,NNE,13,0.0,0.0,69,0.00,,---,0.00,VWS V14.01,2013-05-02 11:35:00,
2013-05-02 04:40:00,48.7,39.0,30.52,North,5,0.0,0.0,69,0.00,,---,0.00,VWS V14.01,2013-05-02 11:40:00,
2013-05-02 04:45:00,48.6,38.9,30.52,North,355,0.0,0.0,69,0.00,,---,0.00,VWS V14.01,2013-05-02 11:45:00,
2013-05-02 04:50:00,48.4,38.7,30.52,NNW,340,0.0,0.0,69,0.00,,---,0.00,VWS V14.01,2013-05-02 11:50:00,
2013-05-02 04:55:00,48.2,38.9,30.52,NW,320,0.0,0.0,70,0.00,,---,0.00,VWS V14.01,2013-05-02 11:55:00,
2013-05-02 05:00:00,48.1,38.8,30.52,NNW,345,0.0,0.0,70,0.00,,---,0.00,VWS V14.01,2013-05-02 12:00:00,
2013-05-02 05:05:00,48.1,38.8,30.52,ENE,78,0.0,0.0,70,0.00,,---,0.00,VWS V14.01,2013-05-02 12:05:00,
2013-05-02 05:10:00,48.3,38.6,30.52,North,355,0.0,0.0,69,0.00,,---,0.00,VWS V14.01,2013-05-02 12:10:00,
2013-05-02 05:15:00,48.3,38.6,30.52,NNW,339,0.0,0.0,69,0.00,,---,0.00,VWS V14.01,2013-05-02 12:15:00,
2013-05-02 05:20:00,48.2,38.5,30.52,NNW,329,0.0,0.0,69,0.00,,---,0.00,VWS V14.01,2013-05-02 12:20:00,
2013-05-02 05:25:00,48.2,38.5,30.52,North,355,0.0,0.0,69,0.00,,---,0.00,VWS V14.01,2013-05-02 12:25:00,
2013-05-02 05:30:00,48.2,38.5,30.52,NNW,334,0.0,0.0,69,0.00,,---,0.00,VWS V14.01,2013-05-02 12:30:00,
2013-05-02 05:35:00,48.1,38.4,30.52,WNW,297,0.0,0.0,69,0.00,,---,0.00,VWS V14.01,2013-05-02 12:35:00,
2013-05-02 05:40:00,48.1,38.8,30.52,NNE,21,0.0,0.0,70,0.00,,---,0.00,VWS V14.01,2013-05-02 12:40:00,
2013-05-02 05:45:00,48.1,38.8,30.52,NNE,22,0.0,0.0,70,0.00,,---,0.00,VWS V14.01,2013-05-02 12:45:00,
2013-05-02 05:50:00,48.1,38.4,30.51,NE,50,0.0,0.0,69,0.00,,---,0.00,VWS V14.01,2013-05-02 12:50:00,
2013-05-02 05:55:00,48.1,38.4,30.51,East,90,0.0,0.0,69,0.00,,---,0.00,VWS V14.01,2013-05-02 12:55:00,
2013-05-02 06:00:00,48.2,38.5,30.51,NNE,32,0.0,0.0,69,0.00,,---,0.00,VWS V14.01,2013-05-02 13:00:00,
2013-05-02 06:05:00,48.4,38.7,30.51,North,355,0.0,0.0,69,0.00,,---,0.00,VWS V14.01,2013-05-02 13:05:00,
2013-05-02 06:10:00,48.4,38.7,30.51,North,351,0.0,0.0,69,0.00,,---,0.00,VWS V14.01,2013-05-02 13:10:00,
2013-05-02 06:15:00,48.3,39.0,30.51,NNE,28,0.0,0.0,70,0.00,,---,0.00,VWS V14.01,2013-05-02 13:15:00,
2013-05-02 06:20:00,48.4,39.4,30.51,East,79,0.0,0.0,71,0.00,,---,0.00,VWS V14.01,2013-05-02 13:20:00,
2013-05-02 06:25:00,48.7,39.4,30.51,SSE,151,0.0,0.0,70,0.00,,---,0.00,VWS V14.01,2013-05-02 13:25:00,
2013-05-02 06:30:00,48.8,39.5,30.51,SE,132,0.0,0.0,70,0.00,,---,0.00,VWS V14.01,2013-05-02 13:30:00,
2013-05-02 06:35:00,48.7,39.4,30.51,North,355,0.0,0.0,70,0.00,,---,0.00,VWS V14.01,2013-05-02 13:35:00,
2013-05-02 06:40:00,48.5,39.5,30.51,North,9,0.0,0.0,71,0.00,,---,0.00,VWS V14.01,2013-05-02 13:40:00,
2013-05-02 06:45:00,48.4,39.8,30.51,NW,326,0.0,0.0,72,0.00,,---,0.00,VWS V14.01,2013-05-02 13:45:00,
2013-05-02 06:50:00,48.7,40.1,30.51,NW,326,0.0,0.0,72,0.00,,---,0.00,VWS V14.01,2013-05-02 13:50:00,
2013-05-02 06:55:00,49.0,40.0,30.51,NE,46,0.0,0.0,71,0.00,,---,0.00,VWS V14.01,2013-05-02 13:55:00,
2013-05-02 07:00:00,49.2,40.2,30.51,NE,40,0.0,0.0,71,0.00,,---,0.00,VWS V14.01,2013-05-02 14:00:00,
2013-05-02 07:05:00,49.3,40.3,30.51,NNE,23,0.0,0.0,71,0.00,,---,0.00,VWS V14.01,2013-05-02 14:05:00,
2013-05-02 07:10:00,49.4,40.4,30.51,NNW,347,0.0,0.0,71,0.00,,---,0.00,VWS V14.01,2013-05-02 14:10:00,
2013-05-02 07:15:00,49.5,40.5,30.51,East,80,0.0,0.0,71,0.00,,---,0.00,VWS V14.01,2013-05-02 14:15:00,
2013-05-02 07:20:00,49.6,40.6,30.51,North,5,0.0,0.0,71,0.00,,---,0.00,VWS V14.01,2013-05-02 14:20:00,
2013-05-02 07:25:00,49.5,40.9,30.51,NNE,30,0.0,0.0,72,0.00,,---,0.00,VWS V14.01,2013-05-02 14:25:00,
2013-05-02 07:30:00,49.6,41.0,30.51,North,355,0.0,0.0,72,0.00,,---,0.00,VWS V14.01,2013-05-02 14:30:00,
2013-05-02 07:35:00,49.7,41.0,30.51,NE,34,0.0,0.0,72,0.00,,---,0.00,VWS V14.01,2013-05-02 14:35:00,
2013-05-02 07:40:00,50.0,41.0,30.51,WNW,303,0.0,0.0,71,0.00,,---,0.00,VWS V14.01,2013-05-02 14:40:00,
2013-05-02 07:45:00,50.3,40.9,30.51,North,355,0.0,0.0,70,0.00,,---,0.00,VWS V14.01,2013-05-02 14:45:00,
2013-05-02 07:50:00,50.2,40.8,30.51,WNW,290,0.0,0.0,70,0.00,,---,0.00,VWS V14.01,2013-05-02 14:50:00,
2013-05-02 07:55:00,50.5,40.7,30.51,North,5,0.0,0.0,69,0.00,,---,0.00,VWS V14.01,2013-05-02 14:55:00,
2013-05-02 08:00:00,51.1,40.9,30.50,SSW,193,0.0,0.0,68,0.00,,---,0.00,VWS V14.01,2013-05-02 15:00:00,
2013-05-02 08:05:00,51.4,40.8,30.50,NNE,16,0.0,0.0,67,0.00,,---,0.00,VWS V14.01,2013-05-02 15:05:00,
2013-05-02 08:10:00,51.5,41.3,30.50,North,360,0.0,0.0,68,0.00,,---,0.00,VWS V14.01,2013-05-02 15:10:00,
2013-05-02 08:15:00,51.7,41.1,30.50,North,355,0.0,0.0,67,0.00,,---,0.00,VWS V14.01,2013-05-02 15:15:00,
2013-05-02 08:20:00,52.2,41.6,30.50,ENE,72,0.0,0.0,67,0.00,,---,0.00,VWS V14.01,2013-05-02 15:20:00,
2013-05-02 08:25:00,52.5,41.5,30.50,NNE,19,0.0,0.0,66,0.00,,---,0.00,VWS V14.01,2013-05-02 15:25:00,
2013-05-02 08:30:00,52.9,41.5,30.50,North,360,0.0,0.0,65,0.00,,---,0.00,VWS V14.01,2013-05-02 15:30:00,
2013-05-02 08:35:00,52.9,41.5,30.50,North,9,0.0,0.0,65,0.00,,---,0.00,VWS V14.01,2013-05-02 15:35:00,
2013-05-02 08:40:00,53.3,41.5,30.50,NNE,30,0.0,0.0,64,0.00,,---,0.00,VWS V14.01,2013-05-02 15:40:00,
2013-05-02 08:45:00,53.7,41.4,30.50,NW,305,0.0,0.0,63,0.00,,---,0.00,VWS V14.01,2013-05-02 15:45:00,
2013-05-02 08:50:00,54.2,41.9,30.50,NNE,30,0.0,0.0,63,0.00,,---,0.00,VWS V14.01,2013-05-02 15:50:00,
2013-05-02 08:55:00,54.5,41.3,30.49,NNE,32,0.0,0.0,61,0.00,,---,0.00,VWS V14.01,2013-05-02 15:55:00,
2013-05-02 09:00:00,54.7,41.5,30.49,North,355,0.0,0.0,61,0.00,,---,0.00,VWS V14.01,2013-05-02 16:00:00,
2013-05-02 09:05:00,54.9,41.7,30.49,ENE,69,0.0,0.0,61,0.00,,---,0.00,VWS V14.01,2013-05-02 16:05:00,
2013-05-02 09:10:00,55.2,41.6,30.48,NNE,17,0.0,0.0,60,0.00,,---,0.00,VWS V14.01,2013-05-02 16:10:00,
2013-05-02 09:15:00,55.3,40.8,30.48,SSE,155,0.0,0.0,58,0.00,,---,0.00,VWS V14.01,2013-05-02 16:15:00,
2013-05-02 09:20:00,55.7,40.3,30.48,NNW,341,0.0,0.0,56,0.00,,---,0.00,VWS V14.01,2013-05-02 16:20:00,
2013-05-02 09:25:00,55.6,40.6,30.48,NW,322,0.0,0.0,57,0.00,,---,0.00,VWS V14.01,2013-05-02 16:25:00,
2013-05-02 09:30:00,55.8,40.4,30.48,North,355,0.0,0.0,56,0.00,,---,0.00,VWS V14.01,2013-05-02 16:30:00,
2013-05-02 09:35:00,56.2,40.3,30.48,NW,324,0.0,0.0,55,0.00,,---,0.00,VWS V14.01,2013-05-02 16:35:00,
2013-05-02 09:40:00,56.5,40.5,30.48,WNW,300,0.0,0.0,55,0.00,,---,0.00,VWS V14.01,2013-05-02 16:40:00,
2013-05-02 09:45:00,56.6,41.1,30.48,NW,317,0.0,0.0,56,0.00,,---,0.00,VWS V14.01,2013-05-02 16:45:00,
2013-05-02 09:50:00,56.8,41.3,30.48,NW,306,0.0,0.0,56,0.00,,---,0.00,VWS V14.01,2013-05-02 16:50:00,
2013-05-02 09:55:00,57.5,41.0,30.48,NNE,19,0.0,0.0,54,0.00,,---,0.00,VWS V14.01,2013-05-02 16:55:00,
2013-05-02 10:00:00,57.9,41.4,30.48,WNW,302,0.0,0.0,54,0.00,,---,0.00,VWS V14.01,2013-05-02 17:00:00,
2013-05-02 10:05:00,58.4,41.8,30.48,WNW,296,0.0,0.0,54,0.00,,---,0.00,VWS V14.01,2013-05-02 17:05:00,
2013-05-02 10:10:00,58.3,42.7,30.47,NW,313,0.0,0.0,56,0.00,,---,0.00,VWS V14.01,2013-05-02 17:10:00,
2013-05-02 10:15:00,57.1,42.5,30.47,NW,319,0.0,0.0,58,0.00,,---,0.00,VWS V14.01,2013-05-02 17:15:00,
2013-05-02 10:20:00,56.8,42.6,30.47,NW,313,0.0,0.0,59,0.00,,---,0.00,VWS V14.01,2013-05-02 17:20:00,
2013-05-02 10:25:00,56.8,42.2,30.48,NW,305,0.0,0.0,58,0.00,,---,0.00,VWS V14.01,2013-05-02 17:25:00,
2013-05-02 10:30:00,56.7,41.7,30.47,NNW,331,0.0,0.0,57,0.00,,---,0.00,VWS V14.01,2013-05-02 17:30:00,
2013-05-02 10:35:00,56.9,41.8,30.47,North,349,0.0,0.0,57,0.00,,---,0.00,VWS V14.01,2013-05-02 17:35:00,
2013-05-02 10:40:00,57.1,41.6,30.47,NNW,342,0.0,0.0,56,0.00,,---,0.00,VWS V14.01,2013-05-02 17:40:00,
2013-05-02 10:45:00,57.3,41.3,30.47,NNW,338,0.0,0.0,55,0.00,,---,0.00,VWS V14.01,2013-05-02 17:45:00,
2013-05-02 10:50:00,57.5,41.0,30.47,NNW,331,0.0,0.0,54,0.00,,---,0.00,VWS V14.01,2013-05-02 17:50:00,
2013-05-02 10:55:00,57.5,40.5,30.46,NNW,341,0.0,0.0,53,0.00,,---,0.00,VWS V14.01,2013-05-02 17:55:00,
2013-05-02 11:00:00,57.7,40.7,30.46,NNW,338,0.0,0.0,53,0.00,,---,0.00,VWS V14.01,2013-05-02 18:00:00,
2013-05-02 11:05:00,58.2,41.2,30.46,NNW,341,0.0,0.0,53,0.00,,---,0.00,VWS V14.01,2013-05-02 18:05:00,
2013-05-02 11:10:00,59.0,41.4,30.46,NNW,334,0.0,0.0,52,0.00,,---,0.00,VWS V14.01,2013-05-02 18:10:00,
2013-05-02 11:15:00,59.1,41.5,30.45,NNW,340,0.0,0.0,52,0.00,,---,0.00,VWS V14.01,2013-05-02 18:15:00,
2013-05-02 11:20:00,59.5,41.4,30.45,NNW,336,0.0,0.0,51,0.00,,---,0.00,VWS V14.01,2013-05-02 18:20:00,
2013-05-02 11:25:00,59.7,41.6,30.45,NNW,331,0.0,0.0,51,0.00,,---,0.00,VWS V14.01,2013-05-02 18:25:00,
2013-05-02 11:30:00,59.5,41.4,30.45,NNW,336,0.0,0.0,51,0.00,,---,0.00,VWS V14.01,2013-05-02 18:30:00,
2013-05-02 11:35:00,59.9,41.8,30.45,NNW,339,0.0,0.0,51,0.00,,---,0.00,VWS V14.01,2013-05-02 18:35:00,
2013-05-02 11:40:00,59.9,42.2,30.45,West,265,0.0,0.0,52,0.00,,---,0.00,VWS V14.01,2013-05-02 18:40:00,
2013-05-02 11:45:00,60.3,42.6,30.45,NNW,336,0.0,0.0,52,0.00,,---,0.00,VWS V14.01,2013-05-02 18:45:00,
2013-05-02 11:50:00,59.8,42.2,30.45,NNW,348,0.0,0.0,52,0.00,,---,0.00,VWS V14.01,2013-05-02 18:50:00,
2013-05-02 11:55:00,59.9,41.8,30.45,North,355,0.0,0.0,51,0.00,,---,0.00,VWS V14.01,2013-05-02 18:55:00,
2013-05-02 12:00:00,60.7,42.5,30.45,NNW,338,0.0,0.0,51,0.00,,---,0.00,VWS V14.01,2013-05-02 19:00:00,
2013-05-02 12:05:00,60.2,41.0,30.45,NNW,334,0.0,0.0,49,0.00,,---,0.00,VWS V14.01,2013-05-02 19:05:00,
2013-05-02 12:09:00,60.2,41.5,30.45,NNW,348,0.0,0.0,50,0.00,,---,0.00,VWS V14.01,2013-05-02 19:09:00,
2013-05-02 12:15:00,60.1,40.9,30.44,West,270,0.0,0.0,49,0.00,,---,0.00,VWS V14.01,2013-05-02 19:15:00,
2013-05-02 12:19:00,60.5,39.6,30.44,NNW,327,0.0,0.0,46,0.00,,---,0.00,VWS V14.01,2013-05-02 19:19:00,
2013-05-02 12:24:00,61.0,39.0,30.44,NW,315,0.0,0.0,44,0.00,,---,0.00,VWS V14.01,2013-05-02 19:24:00,
2013-05-02 12:29:00,60.5,39.1,30.44,NW,304,0.0,0.0,45,0.00,,---,0.00,VWS V14.01,2013-05-02 19:29:00,
2013-05-02 12:30:00,60.7,38.7,30.44,NNW,332,0.0,0.0,44,0.00,,---,0.00,VWS V14.01,2013-05-02 19:30:00,
2013-05-02 12:34:00,61.6,39.5,30.44,NNW,342,0.0,0.0,44,0.00,,---,0.00,VWS V14.01,2013-05-02 19:34:00,
2013-05-02 12:39:00,61.0,37.2,30.44,NNW,333,0.0,0.0,41,0.00,,---,0.00,VWS V14.01,2013-05-02 19:39:00,
2013-05-02 12:44:00,60.8,38.2,30.44,NNW,328,0.0,0.0,43,0.00,,---,0.00,VWS V14.01,2013-05-02 19:44:00,
2013-05-02 12:45:00,61.1,37.9,30.44,WNW,298,0.0,0.0,42,0.00,,---,0.00,VWS V14.01,2013-05-02 19:45:00,
2013-05-02 12:49:00,61.6,38.3,30.44,NNW,346,0.0,0.0,42,0.00,,---,0.00,VWS V14.01,2013-05-02 19:49:00,
2013-05-02 12:54:00,61.0,37.2,30.44,NNW,329,0.0,0.0,41,0.00,,---,0.00,VWS V14.01,2013-05-02 19:54:00,
2013-05-02 12:59:00,60.9,35.8,30.43,NNW,338,0.0,0.0,39,0.00,,---,0.00,VWS V14.01,2013-05-02 19:59:00,
2013-05-02 13:00:00,61.1,37.2,30.43,North,349,0.0,0.0,41,0.00,,---,0.00,VWS V14.01,2013-05-02 20:00:00,
2013-05-02 13:04:00,61.1,36.6,30.43,NNW,338,0.0,0.0,40,0.00,,---,0.00,VWS V14.01,2013-05-02 20:04:00,
2013-05-02 13:09:00,61.5,36.3,30.43,WNW,300,0.0,0.0,39,0.00,,---,0.00,VWS V14.01,2013-05-02 20:09:00,
2013-05-02 13:14:00,61.7,37.2,30.43,NNW,344,0.0,0.0,40,0.00,,---,0.00,VWS V14.01,2013-05-02 20:14:00,
2013-05-02 13:15:00,61.9,38.6,30.43,NNW,341,0.0,0.0,42,0.00,,---,0.00,VWS V14.01,2013-05-02 20:15:00,
2013-05-02 13:19:00,62.0,38.0,30.43,NW,313,0.0,0.0,41,0.00,,---,0.00,VWS V14.01,2013-05-02 20:19:00,
2013-05-02 13:24:00,62.0,38.0,30.43,NNW,348,0.0,0.0,41,0.00,,---,0.00,VWS V14.01,2013-05-02 20:24:00,
2013-05-02 13:29:00,62.5,39.1,30.43,NNW,337,0.0,0.0,42,0.00,,---,0.00,VWS V14.01,2013-05-02 20:29:00,
2013-05-02 13:30:00,62.5,40.3,30.42,NNW,332,0.0,0.0,44,0.00,,---,0.00,VWS V14.01,2013-05-02 20:30:00,
2013-05-02 13:34:00,62.6,39.8,30.42,NNW,327,0.0,0.0,43,0.00,,---,0.00,VWS V14.01,2013-05-02 20:34:00,
2013-05-02 13:39:00,63.1,39.0,30.42,NW,322,0.0,0.0,41,0.00,,---,0.00,VWS V14.01,2013-05-02 20:39:00,
2013-05-02 13:44:00,62.6,38.0,30.42,NNW,336,0.0,0.0,40,0.00,,---,0.00,VWS V14.01,2013-05-02 20:44:00,
2013-05-02 13:45:00,62.4,38.4,30.42,NNW,344,0.0,0.0,41,0.00,,---,0.00,VWS V14.01,2013-05-02 20:45:00,
2013-05-02 13:49:00,62.5,39.7,30.42,NW,317,0.0,0.0,43,0.00,,---,0.00,VWS V14.01,2013-05-02 20:49:00,
2013-05-02 13:54:00,62.4,37.8,30.42,NNW,341,0.0,0.0,40,0.00,,---,0.00,VWS V14.01,2013-05-02 20:54:00,
2013-05-02 13:59:00,62.4,39.0,30.42,NNW,344,0.0,0.0,42,0.00,,---,0.00,VWS V14.01,2013-05-02 20:59:00,
2013-05-02 14:00:00,62.4,39.0,30.42,NW,311,0.0,0.0,42,0.00,,---,0.00,VWS V14.01,2013-05-02 21:00:00,
2013-05-02 14:04:00,62.4,40.8,30.42,NNW,348,0.0,0.0,45,0.00,,---,0.00,VWS V14.01,2013-05-02 21:04:00,
2013-05-02 14:09:00,62.0,40.4,30.42,NNW,346,0.0,0.0,45,0.00,,---,0.00,VWS V14.01,2013-05-02 21:09:00,
2013-05-02 14:14:00,62.2,40.6,30.41,NNW,330,0.0,0.0,45,0.00,,---,0.00,VWS V14.01,2013-05-02 21:14:00,
2013-05-02 14:15:00,62.4,41.4,30.42,NNW,340,0.0,0.0,46,0.00,,---,0.00,VWS V14.01,2013-05-02 21:15:00,
2013-05-02 14:19:00,62.8,42.3,30.42,NNW,333,0.0,0.0,47,0.00,,---,0.00,VWS V14.01,2013-05-02 21:19:00,
2013-05-02 14:24:00,63.6,41.9,30.41,NW,326,0.0,0.0,45,0.00,,---,0.00,VWS V14.01,2013-05-02 21:24:00,
2013-05-02 14:29:00,62.5,42.6,30.41,WNW,285,0.0,0.0,48,0.00,,---,0.00,VWS V14.01,2013-05-02 21:29:00,
2013-05-02 14:30:00,62.8,42.8,30.41,NNW,330,0.0,0.0,48,0.00,,---,0.00,VWS V14.01,2013-05-02 21:30:00,
2013-05-02 14:34:00,62.0,42.6,30.41,NW,322,0.0,0.0,49,0.00,,---,0.00,VWS V14.01,2013-05-02 21:34:00,
2013-05-02 14:39:00,62.5,43.6,30.41,WNW,302,0.0,0.0,50,0.00,,---,0.00,VWS V14.01,2013-05-02 21:39:00,
2013-05-02 14:44:00,62.2,42.3,30.41,NNE,16,0.0,0.0,48,0.00,,---,0.00,VWS V14.01,2013-05-02 21:44:00,
2013-05-02 14:45:00,62.0,42.1,30.41,NNW,334,0.0,0.0,48,0.00,,---,0.00,VWS V14.01,2013-05-02 21:45:00,
2013-05-02 14:49:00,62.0,41.6,30.41,NW,325,0.0,0.0,47,0.00,,---,0.00,VWS V14.01,2013-05-02 21:49:00,
2013-05-02 14:54:00,61.5,41.1,30.41,NNE,29,0.0,0.0,47,0.00,,---,0.00,VWS V14.01,2013-05-02 21:54:00,
2013-05-02 14:59:00,61.2,40.3,30.41,NW,324,0.0,0.0,46,0.00,,---,0.00,VWS V14.01,2013-05-02 21:59:00,
2013-05-02 15:00:00,61.2,40.3,30.41,NW,322,0.0,0.0,46,0.00,,---,0.00,VWS V14.01,2013-05-02 22:00:00,
2013-05-02 15:04:00,61.0,39.5,30.41,NNW,335,0.0,0.0,45,0.00,,---,0.00,VWS V14.01,2013-05-02 22:04:00,
2013-05-02 15:09:00,61.1,40.2,30.41,West,270,0.0,0.0,46,0.00,,---,0.00,VWS V14.01,2013-05-02 22:09:00,
2013-05-02 15:14:00,61.0,40.7,30.41,NW,317,0.0,0.0,47,0.00,,---,0.00,VWS V14.01,2013-05-02 22:14:00,
2013-05-02 15:15:00,61.2,40.3,30.41,NNE,13,0.0,0.0,46,0.00,,---,0.00,VWS V14.01,2013-05-02 22:15:00,
2013-05-02 15:19:00,60.9,40.5,30.41,NNW,336,0.0,0.0,47,0.00,,---,0.00,VWS V14.01,2013-05-02 22:19:00,
2013-05-02 15:24:00,60.7,40.4,30.41,WNW,297,0.0,0.0,47,0.00,,---,0.00,VWS V14.01,2013-05-02 22:24:00,
2013-05-02 15:29:00,60.9,40.5,30.41,NW,316,0.0,0.0,47,0.00,,---,0.00,VWS V14.01,2013-05-02 22:29:00,
2013-05-02 15:30:00,60.9,40.6,30.41,WNW,301,0.0,0.0,47,0.00,,---,0.00,VWS V14.01,2013-05-02 22:30:00,
2013-05-02 15:34:00,60.3,40.0,30.41,North,355,0.0,0.0,47,0.00,,---,0.00,VWS V14.01,2013-05-02 22:34:00,
2013-05-02 15:39:00,60.2,39.9,30.41,WNW,301,0.0,0.0,47,0.00,,---,0.00,VWS V14.01,2013-05-02 22:39:00,
2013-05-02 15:44:00,60.1,39.8,30.41,North,11,0.0,0.0,47,0.00,,---,0.00,VWS V14.01,2013-05-02 22:44:00,
2013-05-02 15:49:00,59.9,40.2,30.41,NNW,345,0.0,0.0,48,0.00,,---,0.00,VWS V14.01,2013-05-02 22:49:00,
2013-05-02 15:54:00,60.0,40.3,30.41,West,280,0.0,0.0,48,0.00,,---,0.00,VWS V14.01,2013-05-02 22:54:00,
2013-05-02 15:59:00,59.8,40.1,30.41,West,259,0.0,0.0,48,0.00,,---,0.00,VWS V14.01,2013-05-02 22:59:00,
2013-05-02 16:04:00,60.4,40.1,30.41,South,190,0.0,0.0,47,0.00,,---,0.00,VWS V14.01,2013-05-02 23:04:00,
2013-05-02 16:09:00,60.5,39.6,30.41,WNW,282,0.0,0.0,46,0.00,,---,0.00,VWS V14.01,2013-05-02 23:09:00,
2013-05-02 16:14:00,60.0,39.2,30.40,NE,56,0.0,0.0,46,0.00,,---,0.00,VWS V14.01,2013-05-02 23:14:00,
2013-05-02 16:15:00,60.0,38.6,30.40,NNW,329,0.0,0.0,45,0.00,,---,0.00,VWS V14.01,2013-05-02 23:15:00,
2013-05-02 16:19:00,59.8,39.0,30.40,NNW,329,0.0,0.0,46,0.00,,---,0.00,VWS V14.01,2013-05-02 23:19:00,
2013-05-02 16:24:00,59.3,38.5,30.40,North,349,0.0,0.0,46,0.00,,---,0.00,VWS V14.01,2013-05-02 23:24:00,
2013-05-02 16:29:00,59.2,38.5,30.40,NNW,329,0.0,0.0,46,0.00,,---,0.00,VWS V14.01,2013-05-02 23:29:00,
2013-05-02 16:30:00,59.3,38.5,30.40,NNW,345,0.0,0.0,46,0.00,,---,0.00,VWS V14.01,2013-05-02 23:30:00,
2013-05-02 16:34:00,59.2,38.5,30.40,NNW,341,0.0,0.0,46,0.00,,---,0.00,VWS V14.01,2013-05-02 23:34:00,
2013-05-02 16:39:00,59.3,38.5,30.40,North,355,0.0,0.0,46,0.00,,---,0.00,VWS V14.01,2013-05-02 23:39:00,
2013-05-02 16:44:00,59.2,39.0,30.40,NNW,346,0.0,0.0,47,0.00,,---,0.00,VWS V14.01,2013-05-02 23:44:00,
2013-05-02 16:45:00,59.3,39.1,30.40,NNW,338,0.0,0.0,47,0.00,,---,0.00,VWS V14.01,2013-05-02 23:45:00,
2013-05-02 16:49:00,59.4,39.2,30.40,NNE,12,0.0,0.0,47,0.00,,---,0.00,VWS V14.01,2013-05-02 23:49:00,
2013-05-02 16:54:00,59.5,39.3,30.40,NW,322,0.0,0.0,47,0.00,,---,0.00,VWS V14.01,2013-05-02 23:54:00,
2013-05-02 16:59:00,59.9,39.1,30.40,NNW,344,0.0,0.0,46,0.00,,---,0.00,VWS V14.01,2013-05-02 23:59:00,
2013-05-02 17:00:00,59.8,39.0,30.40,North,355,0.0,0.0,46,0.00,,---,0.00,VWS V14.01,2013-05-03 00:00:00,
2013-05-02 17:04:00,59.8,39.5,30.40,NNW,329,0.0,0.0,47,0.00,,---,0.00,VWS V14.01,2013-05-03 00:04:00,
2013-05-02 17:09:00,59.2,40.6,30.40,NNW,344,0.0,0.0,50,0.00,,---,0.00,VWS V14.01,2013-05-03 00:09:00,
2013-05-02 17:14:00,59.0,41.4,30.40,North,355,0.0,0.0,52,0.00,,---,0.00,VWS V14.01,2013-05-03 00:14:00,
2013-05-02 17:15:00,59.0,41.4,30.41,WNW,283,0.0,0.0,52,0.00,,---,0.00,VWS V14.01,2013-05-03 00:15:00,
2013-05-02 17:19:00,59.1,41.0,30.41,West,269,0.0,0.0,51,0.00,,---,0.00,VWS V14.01,2013-05-03 00:19:00,
2013-05-02 17:24:00,58.8,39.2,30.40,North,355,0.0,0.0,48,0.00,,---,0.00,VWS V14.01,2013-05-03 00:24:00,
2013-05-02 17:29:00,59.2,38.5,30.40,East,86,0.0,0.0,46,0.00,,---,0.00,VWS V14.01,2013-05-03 00:29:00,
2013-05-02 17:30:00,59.4,38.6,30.40,NNE,19,0.0,0.0,46,0.00,,---,0.00,VWS V14.01,2013-05-03 00:30:00,
2013-05-02 17:34:00,59.6,38.8,30.39,WSW,242,0.0,0.0,46,0.00,,---,0.00,VWS V14.01,2013-05-03 00:34:00,
2013-05-02 17:39:00,59.8,38.4,30.39,WNW,292,0.0,0.0,45,0.00,,---,0.00,VWS V14.01,2013-05-03 00:39:00,
2013-05-02 17:44:00,59.9,38.5,30.39,NNW,332,0.0,0.0,45,0.00,,---,0.00,VWS V14.01,2013-05-03 00:44:00,
2013-05-02 17:45:00,59.9,38.5,30.39,NW,304,0.0,0.0,45,0.00,,---,0.00,VWS V14.01,2013-05-03 00:45:00,
2013-05-02 17:49:00,60.0,38.6,30.39,WNW,300,0.0,0.0,45,0.00,,---,0.00,VWS V14.01,2013-05-03 00:49:00,
2013-05-02 17:54:00,59.8,39.5,30.39,West,269,0.0,0.0,47,0.00,,---,0.00,VWS V14.01,2013-05-03 00:54:00,
2013-05-02 17:59:00,59.9,39.6,30.39,SSW,197,0.0,0.0,47,0.00,,---,0.00,VWS V14.01,2013-05-03 00:59:00,
2013-05-02 18:00:00,59.9,40.2,30.40,North,355,0.0,0.0,48,0.00,,---,0.00,VWS V14.01,2013-05-03 01:00:00,
2013-05-02 18:04:00,60.1,39.8,30.40,NW,315,0.0,0.0,47,0.00,,---,0.00,VWS V14.01,2013-05-03 01:04:00,
2013-05-02 18:09:00,59.9,39.6,30.40,NNW,340,0.0,0.0,47,0.00,,---,0.00,VWS V14.01,2013-05-03 01:09:00,
2013-05-02 18:14:00,59.9,40.7,30.40,North,360,0.0,0.0,49,0.00,,---,0.00,VWS V14.01,2013-05-03 01:14:00,
2013-05-02 18:15:00,59.6,41.0,30.40,NNW,337,0.0,0.0,50,0.00,,---,0.00,VWS V14.01,2013-05-03 01:15:00,
2013-05-02 18:19:00,59.6,41.0,30.40,SW,225,0.0,0.0,50,0.00,,---,0.00,VWS V14.01,2013-05-03 01:19:00,
2013-05-02 18:24:00,59.5,40.9,30.40,NNW,333,0.0,0.0,50,0.00,,---,0.00,VWS V14.01,2013-05-03 01:24:00,
2013-05-02 18:29:00,59.2,41.1,30.40,NNW,336,0.0,0.0,51,0.00,,---,0.00,VWS V14.01,2013-05-03 01:29:00,
2013-05-02 18:30:00,59.1,41.5,30.40,NNW,347,0.0,0.0,52,0.00,,---,0.00,VWS V14.01,2013-05-03 01:30:00,
2013-05-02 18:34:00,58.9,41.3,30.40,NNW,344,0.0,0.0,52,0.00,,---,0.00,VWS V14.01,2013-05-03 01:34:00,
2013-05-02 18:39:00,58.9,40.8,30.39,NNE,15,0.0,0.0,51,0.00,,---,0.00,VWS V14.01,2013-05-03 01:39:00,
2013-05-02 18:44:00,58.9,40.8,30.40,NNW,329,0.0,0.0,51,0.00,,---,0.00,VWS V14.01,2013-05-03 01:44:00,
2013-05-02 18:45:00,58.8,40.2,30.40,NNW,341,0.0,0.0,50,0.00,,---,0.00,VWS V14.01,2013-05-03 01:45:00,
2013-05-02 18:49:00,58.9,40.3,30.39,NNW,342,0.0,0.0,50,0.00,,---,0.00,VWS V14.01,2013-05-03 01:49:00,
2013-05-02 18:54:00,59.1,40.0,30.40,North,350,0.0,0.0,49,0.00,,---,0.00,VWS V14.01,2013-05-03 01:54:00,
2013-05-02 18:59:00,59.0,39.4,30.40,NNW,335,0.0,0.0,48,0.00,,---,0.00,VWS V14.01,2013-05-03 01:59:00,
2013-05-02 19:00:00,58.9,39.3,30.40,WNW,302,0.0,0.0,48,0.00,,---,0.00,VWS V14.01,2013-05-03 02:00:00,
2013-05-02 19:04:00,58.7,39.1,30.40,NNW,335,0.0,0.0,48,0.00,,---,0.00,VWS V14.01,2013-05-03 02:04:00,
2013-05-02 19:09:00,58.6,39.0,30.40,NNW,344,0.0,0.0,48,0.00,,---,0.00,VWS V14.01,2013-05-03 02:09:00,
2013-05-02 19:14:00,58.4,38.8,30.40,WSW,258,0.0,0.0,48,0.00,,---,0.00,VWS V14.01,2013-05-03 02:14:00,
2013-05-02 19:15:00,58.4,39.3,30.40,NNE,28,0.0,0.0,49,0.00,,---,0.00,VWS V14.01,2013-05-03 02:15:00,
2013-05-02 19:19:00,58.4,39.8,30.40,NW,315,0.0,0.0,50,0.00,,---,0.00,VWS V14.01,2013-05-03 02:19:00,
2013-05-02 19:24:00,58.4,39.8,30.40,South,170,0.0,0.0,50,0.00,,---,0.00,VWS V14.01,2013-05-03 02:24:00,
2013-05-02 19:29:00,58.4,40.4,30.40,NNE,28,0.0,0.0,51,0.00,,---,0.00,VWS V14.01,2013-05-03 02:29:00,
2013-05-02 19:30:00,58.5,40.5,30.40,SW,234,0.0,0.0,51,0.00,,---,0.00,VWS V14.01,2013-05-03 02:30:00,
2013-05-02 19:34:00,58.4,40.9,30.40,NNW,346,0.0,0.0,52,0.00,,---,0.00,VWS V14.01,2013-05-03 02:34:00,
2013-05-02 19:39:00,58.4,40.9,30.39,NE,40,0.0,0.0,52,0.00,,---,0.00,VWS V14.01,2013-05-03 02:39:00,
2013-05-02 19:44:00,58.4,41.3,30.39,SW,218,0.0,0.0,53,0.00,,---,0.00,VWS V14.01,2013-05-03 02:44:00,
2013-05-02 19:45:00,58.4,41.3,30.39,North,5,0.0,0.0,53,0.00,,---,0.00,VWS V14.01,2013-05-03 02:45:00,
2013-05-02 19:49:00,58.5,41.5,30.39,NNW,342,0.0,0.0,53,0.00,,---,0.00,VWS V14.01,2013-05-03 02:49:00,
2013-05-02 19:54:00,58.5,41.0,30.39,West,280,0.0,0.0,52,0.00,,---,0.00,VWS V14.01,2013-05-03 02:54:00,
2013-05-02 19:59:00,58.5,41.0,30.39,West,273,0.0,0.0,52,0.00,,---,0.00,VWS V14.01,2013-05-03 02:59:00,
2013-05-02 20:00:00,58.6,41.0,30.39,WNW,288,0.0,0.0,52,0.00,,---,0.00,VWS V14.01,2013-05-03 03:00:00,
2013-05-02 20:04:00,58.6,41.0,30.38,NNE,32,0.0,0.0,52,0.00,,---,0.00,VWS V14.01,2013-05-03 03:04:00,
2013-05-02 20:09:00,58.5,41.0,30.39,WSW,239,0.0,0.0,52,0.00,,---,0.00,VWS V14.01,2013-05-03 03:09:00,
2013-05-02 20:14:00,58.2,40.2,30.39,NW,324,0.0,0.0,51,0.00,,---,0.00,VWS V14.01,2013-05-03 03:14:00,
2013-05-02 20:15:00,58.1,40.6,30.39,NW,306,0.0,0.0,52,0.00,,---,0.00,VWS V14.01,2013-05-03 03:15:00,
2013-05-02 20:19:00,58.0,40.5,30.39,NNW,342,0.0,0.0,52,0.00,,---,0.00,VWS V14.01,2013-05-03 03:19:00,
2013-05-02 20:24:00,57.8,40.3,30.39,ESE,114,0.0,0.0,52,0.00,,---,0.00,VWS V14.01,2013-05-03 03:24:00,
2013-05-02 20:29:00,57.7,40.7,30.39,NNE,19,0.0,0.0,53,0.00,,---,0.00,VWS V14.01,2013-05-03 03:29:00,
2013-05-02 20:30:00,57.6,40.6,30.39,NNW,328,0.0,0.0,53,0.00,,---,0.00,VWS V14.01,2013-05-03 03:30:00,
2013-05-02 20:34:00,57.5,40.0,30.39,NNW,331,0.0,0.0,52,0.00,,---,0.00,VWS V14.01,2013-05-03 03:34:00,
2013-05-02 20:39:00,57.1,41.6,30.39,North,355,0.0,0.0,56,0.00,,---,0.00,VWS V14.01,2013-05-03 03:39:00,
2013-05-02 20:44:00,56.2,42.1,30.39,NNW,334,0.0,0.0,59,0.00,,---,0.00,VWS V14.01,2013-05-03 03:44:00,
2013-05-02 20:45:00,56.1,42.0,30.39,NE,51,0.0,0.0,59,0.00,,---,0.00,VWS V14.01,2013-05-03 03:45:00,
2013-05-02 20:49:00,56.2,41.6,30.40,West,275,0.0,0.0,58,0.00,,---,0.00,VWS V14.01,2013-05-03 03:49:00,
2013-05-02 20:54:00,56.3,42.2,30.39,NW,310,0.0,0.0,59,0.00,,---,0.00,VWS V14.01,2013-05-03 03:54:00,
2013-05-02 20:59:00,56.2,42.1,30.40,NW,307,0.0,0.0,59,0.00,,---,0.00,VWS V14.01,2013-05-03 03:59:00,
2013-05-02 21:00:00,56.1,42.0,30.40,NNW,329,0.0,0.0,59,0.00,,---,0.00,VWS V14.01,2013-05-03 04:00:00,
2013-05-02 21:01:00,56.2,42.1,30.40,NNW,339,0.0,0.0,59,0.00,,---,0.00,VWS V14.01,2013-05-03 04:01:00,
2013-05-02 21:06:00,55.8,42.6,30.40,NNW,336,0.0,0.0,61,0.00,,---,0.00,VWS V14.01,2013-05-03 04:06:00,
2013-05-02 21:11:00,55.7,42.5,30.40,NNW,343,0.0,0.0,61,0.00,,---,0.00,VWS V14.01,2013-05-03 04:11:00,
2013-05-02 21:15:00,55.7,42.5,30.40,ENE,63,0.0,0.0,61,0.00,,---,0.00,VWS V14.01,2013-05-03 04:15:00,
2013-05-02 21:16:00,55.7,42.5,30.40,North,351,0.0,0.0,61,0.00,,---,0.00,VWS V14.01,2013-05-03 04:16:00,
2013-05-02 21:21:00,55.8,42.1,30.40,West,281,0.0,0.0,60,0.00,,---,0.00,VWS V14.01,2013-05-03 04:21:00,
2013-05-02 21:26:00,55.7,42.0,30.40,NE,34,0.0,0.0,60,0.00,,---,0.00,VWS V14.01,2013-05-03 04:26:00,
2013-05-02 21:30:00,55.7,41.6,30.40,SW,219,0.0,0.0,59,0.00,,---,0.00,VWS V14.01,2013-05-03 04:30:00,
2013-05-02 21:31:00,55.7,41.6,30.40,SSE,157,0.0,0.0,59,0.00,,---,0.00,VWS V14.01,2013-05-03 04:31:00,
2013-05-02 21:36:00,55.7,41.2,30.40,WNW,288,0.0,0.0,58,0.00,,---,0.00,VWS V14.01,2013-05-03 04:36:00,
2013-05-02 21:41:00,55.6,41.5,30.40,West,271,0.0,0.0,59,0.00,,---,0.00,VWS V14.01,2013-05-03 04:41:00,
2013-05-02 21:45:00,55.5,41.4,30.39,WSW,242,0.0,0.0,59,0.00,,---,0.00,VWS V14.01,2013-05-03 04:45:00,
2013-05-02 21:46:00,55.5,41.4,30.39,NNE,14,0.0,0.0,59,0.00,,---,0.00,VWS V14.01,2013-05-03 04:46:00,
2013-05-02 21:51:00,55.5,41.9,30.39,NE,44,0.0,0.0,60,0.00,,---,0.00,VWS V14.01,2013-05-03 04:51:00,
2013-05-02 21:56:00,55.5,41.4,30.39,West,281,0.0,0.0,59,0.00,,---,0.00,VWS V14.01,2013-05-03 04:56:00,
2013-05-02 22:00:00,55.5,40.5,30.39,NNE,20,0.0,0.0,57,0.00,,---,0.00,VWS V14.01,2013-05-03 05:00:00,
2013-05-02 22:01:00,55.5,40.5,30.39,NW,325,0.0,0.0,57,0.00,,---,0.00,VWS V14.01,2013-05-03 05:01:00,
2013-05-02 22:06:00,55.6,40.6,30.39,NNE,28,0.0,0.0,57,0.00,,---,0.00,VWS V14.01,2013-05-03 05:06:00,
2013-05-02 22:11:00,55.6,41.1,30.39,ENE,61,0.0,0.0,58,0.00,,---,0.00,VWS V14.01,2013-05-03 05:11:00,
2013-05-02 22:15:00,55.6,40.6,30.39,NNW,331,0.0,0.0,57,0.00,,---,0.00,VWS V14.01,2013-05-03 05:15:00,
2013-05-02 22:16:00,55.6,40.6,30.39,NNE,30,0.0,0.0,57,0.00,,---,0.00,VWS V14.01,2013-05-03 05:16:00,
2013-05-02 22:21:00,55.6,40.6,30.40,NE,47,0.0,0.0,57,0.00,,---,0.00,VWS V14.01,2013-05-03 05:21:00,
2013-05-02 22:26:00,55.5,40.5,30.40,North,9,0.0,0.0,57,0.00,,---,0.00,VWS V14.01,2013-05-03 05:26:00,
2013-05-02 22:30:00,55.5,40.5,30.40,North,360,0.0,0.0,57,0.00,,---,0.00,VWS V14.01,2013-05-03 05:30:00,
2013-05-02 22:31:00,55.5,40.5,30.40,North,351,0.0,0.0,57,0.00,,---,0.00,VWS V14.01,2013-05-03 05:31:00,
2013-05-02 22:36:00,55.4,40.4,30.40,NE,51,0.0,0.0,57,0.00,,---,0.00,VWS V14.01,2013-05-03 05:36:00,
2013-05-02 22:41:00,55.3,40.3,30.40,NE,42,0.0,0.0,57,0.00,,---,0.00,VWS V14.01,2013-05-03 05:41:00,
2013-05-02 22:45:00,55.2,40.2,30.39,WNW,294,0.0,0.0,57,0.00,,---,0.00,VWS V14.01,2013-05-03 05:45:00,
2013-05-02 22:46:00,55.2,40.2,30.39,North,5,0.0,0.0,57,0.00,,---,0.00,VWS V14.01,2013-05-03 05:46:00,
2013-05-02 22:51:00,55.1,40.6,30.39,NNE,24,0.0,0.0,58,0.00,,---,0.00,VWS V14.01,2013-05-03 05:51:00,
2013-05-02 22:56:00,55.0,40.5,30.39,North,360,0.0,0.0,58,0.00,,---,0.00,VWS V14.01,2013-05-03 05:56:00,
2013-05-02 23:00:00,54.9,40.4,30.39,West,277,0.0,0.0,58,0.00,,---,0.00,VWS V14.01,2013-05-03 06:00:00,
2013-05-02 23:01:00,54.9,40.4,30.39,West,280,0.0,0.0,58,0.00,,---,0.00,VWS V14.01,2013-05-03 06:01:00,
2013-05-02 23:06:00,54.9,40.9,30.39,NNE,24,0.0,0.0,59,0.00,,---,0.00,VWS V14.01,2013-05-03 06:06:00,
2013-05-02 23:11:00,54.8,40.8,30.39,NW,304,0.0,0.0,59,0.00,,---,0.00,VWS V14.01,2013-05-03 06:11:00,
2013-05-02 23:15:00,54.8,40.8,30.39,NE,40,0.0,0.0,59,0.00,,---,0.00,VWS V14.01,2013-05-03 06:15:00,
2013-05-02 23:16:00,54.8,40.8,30.39,ENE,78,0.0,0.0,59,0.00,,---,0.00,VWS V14.01,2013-05-03 06:16:00,
2013-05-02 23:21:00,54.7,40.7,30.40,NNW,338,0.0,0.0,59,0.00,,---,0.00,VWS V14.01,2013-05-03 06:21:00,
2013-05-02 23:26:00,54.6,40.6,30.40,NE,46,0.0,0.0,59,0.00,,---,0.00,VWS V14.01,2013-05-03 06:26:00,
2013-05-02 23:30:00,54.5,40.5,30.40,NNE,30,0.0,0.0,59,0.00,,---,0.00,VWS V14.01,2013-05-03 06:30:00,
2013-05-02 23:31:00,54.5,40.5,30.40,NE,38,0.0,0.0,59,0.00,,---,0.00,VWS V14.01,2013-05-03 06:31:00,
2013-05-02 23:36:00,54.5,40.5,30.40,North,360,0.0,0.0,59,0.00,,---,0.00,VWS V14.01,2013-05-03 06:36:00,
2013-05-02 23:41:00,54.5,40.5,30.40,NE,42,0.0,0.0,59,0.00,,---,0.00,VWS V14.01,2013-05-03 06:41:00,
2013-05-02 23:45:00,54.4,40.8,30.40,ESE,113,0.0,0.0,60,0.00,,---,0.00,VWS V14.01,2013-05-03 06:45:00,
2013-05-02 23:46:00,54.4,40.8,30.40,NNE,26,0.0,0.0,60,0.00,,---,0.00,VWS V14.01,2013-05-03 06:46:00,
2013-05-02 23:51:00,54.4,40.8,30.40,WSW,249,0.0,0.0,60,0.00,,---,0.00,VWS V14.01,2013-05-03 06:51:00,
2013-05-02 23:55:00,54.3,40.7,30.40,WSW,244,0.0,0.0,60,0.00,,---,0.00,VWS V14.01,2013-05-03 06:55:00,